Location: �perlecques
(50.8057°N, 2.1521°E)
Time: 18:17:16
(UTC+00:00)

STARLINK-1205 - Pass Details

Date: 09 April 2020
Orbit: 548 x 551 km, 53.0° (Epoch: 25 May)

Event Time Altitude Azimuth Distance (km) Brightness Sun altitude
Rises 20:11:47 0° 289° (WNW) 2,735 8.8 -14.4°
Reaches altitude 10° 20:14:20 10° 275° (W) 1,837 7.3 -14.8°
Maximum altitude 20:17:40 23° 222° (SW) 1,192 5.4 -15.2°
Enters shadow 20:20:06 14° 177° (S) 1,568 5.6 -15.5°
